When you browse on this site, cookies collect data to enhance your experience and personalize the content and advertising you see.
Visit our Privacy Policy to learn more. By continuing to use the site, you agree to this use of cookies and data.
  • In Schweiz
  • Länderverzeichnis
  • Für 7 Tage
  • Wassertemperatur
  • Satellitenkarten
  • Wetterkarte
  • Widgets
  • user-avatar
    Anmelden

    Stündliche Wetter Kaposvár

    Heute, 16 Juli, Dienstag

    Zeit Temperatur Niederschläge Wind Luftdruck Luftfeuchtigkeit
    00:00 +16°C° 0 mm 1 m/S 745 mmHg 68%
    01:00 +15°C° 0 mm 1 m/S 745 mmHg 72%
    02:00 +15°C° 0 mm 1 m/S 745 mmHg 72%
    03:00 +14°C° 0 mm 1 m/S 745 mmHg 73%
    04:00 +14°C° 0 mm 1 m/S 745 mmHg 73%
    05:00 +16°C° 0 mm 2 m/S 745 mmHg 70%
    06:00 +17°C° 0 mm 2 m/S 745 mmHg 68%
    07:00 +19°C° 0 mm 2 m/S 746 mmHg 65%
    08:00 +21°C° 0 mm 2 m/S 746 mmHg 59%
    09:00 +22°C° 0 mm 3 m/S 746 mmHg 53%
    10:00 +25°C° 0 mm 3 m/S 746 mmHg 48%
    11:00 +26°C° 0 mm 3 m/S 746 mmHg 44%
    12:00 +26°C° 0 mm 3 m/S 745 mmHg 41%
    13:00 +27°C° 0 mm 3 m/S 745 mmHg 38%
    14:00 +27°C° 0 mm 2 m/S 745 mmHg 38%
    15:00 +27°C° 0 mm 2 m/S 745 mmHg 39%
    16:00 +27°C° 0 mm 2 m/S 745 mmHg 39%
    17:00 +26°C° 0 mm 1 m/S 745 mmHg 45%
    18:00 +24°C° 0 mm 1 m/S 744 mmHg 50%
    19:00 +23°C° 0 mm 1 m/S 744 mmHg 56%
    20:00 +21°C° 0 mm 1 m/S 745 mmHg 58%
    21:00 +20°C° 0 mm 1 m/S 745 mmHg 60%
    22:00 +19°C° 0 mm 1 m/S 745 mmHg 63%
    23:00 +19°C° 0 mm 1 m/S 745 mmHg 65%

    Morgen, 17 Juli, Mittwoch

    Zeit Temperatur Niederschläge Wind Luftdruck Luftfeuchtigkeit
    00:00 +18°C° 0 mm 1 m/S 746 mmHg 68%
    01:00 +18°C° 0 mm 1 m/S 746 mmHg 70%
    02:00 +16°C° 0 mm 1 m/S 746 mmHg 74%
    03:00 +16°C° 0 mm 1 m/S 746 mmHg 78%
    04:00 +15°C° 0 mm 1 m/S 746 mmHg 81%
    05:00 +17°C° 0 mm 2 m/S 746 mmHg 76%
    06:00 +18°C° 0 mm 2 m/S 746 mmHg 71%
    07:00 +19°C° 0 mm 2 m/S 746 mmHg 66%
    08:00 +21°C° 0 mm 2 m/S 746 mmHg 62%
    09:00 +23°C° 0 mm 2 m/S 746 mmHg 58%
    10:00 +25°C° 0 mm 2 m/S 746 mmHg 54%
    11:00 +26°C° 0 mm 2 m/S 746 mmHg 52%
    12:00 +27°C° 0 mm 2 m/S 745 mmHg 49%
    13:00 +27°C° 0 mm 2 m/S 745 mmHg 47%
    14:00 +27°C° 0 mm 2 m/S 745 mmHg 47%
    15:00 +27°C° 0 mm 2 m/S 745 mmHg 48%
    16:00 +27°C° 0 mm 1 m/S 744 mmHg 48%
    17:00 +26°C° 0 mm 1 m/S 744 mmHg 54%
    18:00 +24°C° 0 mm 1 m/S 744 mmHg 60%
    19:00 +21°C° 0 mm 0 m/S 744 mmHg 66%
    20:00 +20°C° 0 mm 0 m/S 744 mmHg 69%
    21:00 +21°C° 0 mm 1 m/S 744 mmHg 72%
    22:00 +20°C° 0 mm 1 m/S 744 mmHg 75%
    23:00 +19°C° 0.1 mm 1 m/S 744 mmHg 78%

    übermorgen, 18 Juli, Donnerstag

    Zeit Temperatur Niederschläge Wind Luftdruck Luftfeuchtigkeit
    00:00 +19°C° 0.1 mm 1 m/S 744 mmHg 82%
    01:00 +18°C° 0.1 mm 1 m/S 744 mmHg 85%
    02:00 +18°C° 0.5 mm 1 m/S 744 mmHg 87%
    03:00 +18°C° 0.5 mm 1 m/S 744 mmHg 89%
    04:00 +18°C° 0.5 mm 1 m/S 744 mmHg 90%
    05:00 +19°C° 1.1 mm 1 m/S 744 mmHg 90%
    06:00 +19°C° 1.1 mm 1 m/S 744 mmHg 89%
    07:00 +20°C° 1.1 mm 1 m/S 744 mmHg 88%
    08:00 +20°C° 0.5 mm 1 m/S 744 mmHg 88%
    09:00 +20°C° 0.5 mm 2 m/S 745 mmHg 88%
    10:00 +20°C° 0.5 mm 2 m/S 745 mmHg 88%
    11:00 +23°C° 0.2 mm 2 m/S 745 mmHg 79%
    12:00 +24°C° 0.2 mm 2 m/S 744 mmHg 71%
    13:00 +26°C° 0.2 mm 2 m/S 744 mmHg 62%
    14:00 +26°C° 0.1 mm 2 m/S 744 mmHg 61%
    15:00 +27°C° 0.1 mm 1 m/S 744 mmHg 59%
    16:00 +27°C° 0.1 mm 1 m/S 744 mmHg 58%
    17:00 +26°C° 0.3 mm 1 m/S 744 mmHg 65%
    18:00 +24°C° 0.3 mm 1 m/S 744 mmHg 73%
    19:00 +23°C° 0.3 mm 1 m/S 744 mmHg 81%
    20:00 +22°C° 0.3 mm 1 m/S 745 mmHg 85%
    21:00 +21°C° 0.3 mm 1 m/S 745 mmHg 89%
    22:00 +19°C° 0.3 mm 1 m/S 745 mmHg 94%
    23:00 +19°C° 0.1 mm 1 m/S 745 mmHg 94%

    19 Juli, Freitag

    Zeit Temperatur Niederschläge Wind Luftdruck Luftfeuchtigkeit
    00:00 +19°C° 0.1 mm 1 m/S 745 mmHg 94%
    01:00 +17°C° 0.1 mm 0 m/S 745 mmHg 94%
    02:00 +18°C° 0 mm 1 m/S 745 mmHg 94%
    03:00 +18°C° 0 mm 1 m/S 745 mmHg 95%
    04:00 +16°C° 0 mm 1 m/S 745 mmHg 95%
    05:00 +18°C° 0 mm 1 m/S 745 mmHg 93%
    06:00 +17°C° 0 mm 0 m/S 746 mmHg 90%
    07:00 +19°C° 0 mm 0 m/S 746 mmHg 87%
    08:00 +22°C° 0 mm 1 m/S 746 mmHg 80%
    09:00 +24°C° 0 mm 1 m/S 746 mmHg 72%
    10:00 +25°C° 0 mm 1 m/S 746 mmHg 64%
    11:00 +26°C° 0 mm 2 m/S 746 mmHg 61%
    12:00 +27°C° 0 mm 2 m/S 746 mmHg 57%
    13:00 +28°C° 0 mm 2 m/S 746 mmHg 54%
    14:00 +28°C° 0 mm 2 m/S 746 mmHg 54%
    15:00 +28°C° 0 mm 2 m/S 746 mmHg 55%
    16:00 +28°C° 0 mm 2 m/S 746 mmHg 55%
    17:00 +26°C° 0.2 mm 2 m/S 746 mmHg 63%
    18:00 +25°C° 0.2 mm 2 m/S 746 mmHg 71%
    19:00 +23°C° 0.2 mm 2 m/S 746 mmHg 79%
    20:00 +21°C° 0.1 mm 2 m/S 746 mmHg 81%
    21:00 +21°C° 0.1 mm 1 m/S 746 mmHg 84%
    22:00 +20°C° 0.1 mm 1 m/S 747 mmHg 86%
    23:00 +19°C° 0 mm 1 m/S 747 mmHg 87%

    20 Juli, Samstag

    Zeit Temperatur Niederschläge Wind Luftdruck Luftfeuchtigkeit
    00:00 +19°C° 0 mm 1 m/S 747 mmHg 88%
    01:00 +19°C° 0 mm 1 m/S 747 mmHg 88%
    02:00 +18°C° 0 mm 1 m/S 747 mmHg 89%
    03:00 +18°C° 0 mm 1 m/S 747 mmHg 89%
    04:00 +16°C° 0 mm 0 m/S 747 mmHg 90%
    05:00 +19°C° 0 mm 1 m/S 747 mmHg 85%
    06:00 +21°C° 0 mm 1 m/S 747 mmHg 81%
    07:00 +22°C° 0 mm 1 m/S 747 mmHg 76%
    08:00 +24°C° 0 mm 1 m/S 748 mmHg 68%
    09:00 +26°C° 0 mm 1 m/S 748 mmHg 61%
    10:00 +28°C° 0 mm 1 m/S 748 mmHg 53%
    11:00 +29°C° 0 mm 1 m/S 748 mmHg 50%
    12:00 +30°C° 0 mm 2 m/S 747 mmHg 46%
    13:00 +30°C° 0 mm 2 m/S 747 mmHg 43%
    14:00 +30°C° 0 mm 2 m/S 747 mmHg 44%
    15:00 +30°C° 0 mm 2 m/S 747 mmHg 46%
    16:00 +30°C° 0 mm 3 m/S 746 mmHg 47%
    17:00 +28°C° 0 mm 3 m/S 746 mmHg 55%
    18:00 +27°C° 0 mm 3 m/S 746 mmHg 63%
    19:00 +25°C° 0 mm 2 m/S 746 mmHg 71%
    20:00 +24°C° 0 mm 3 m/S 747 mmHg 71%
    21:00 +22°C° 0 mm 3 m/S 747 mmHg 71%
    22:00 +21°C° 0 mm 3 m/S 747 mmHg 71%
    23:00 +21°C° 0 mm 3 m/S 747 mmHg 73%

    21 Juli, Sonntag

    Zeit Temperatur Niederschläge Wind Luftdruck Luftfeuchtigkeit
    00:00 +21°C° 0 mm 3 m/S 747 mmHg 74%
    01:00 +20°C° 0 mm 2 m/S 747 mmHg 75%
    02:00 +20°C° 0 mm 2 m/S 747 mmHg 76%
    03:00 +20°C° 0 mm 2 m/S 747 mmHg 77%
    04:00 +19°C° 0 mm 2 m/S 747 mmHg 78%
    05:00 +20°C° 0 mm 2 m/S 747 mmHg 75%
    06:00 +23°C° 0 mm 2 m/S 747 mmHg 72%
    07:00 +24°C° 0 mm 2 m/S 747 mmHg 69%
    08:00 +26°C° 0 mm 2 m/S 748 mmHg 64%
    09:00 +28°C° 0 mm 2 m/S 748 mmHg 58%
    10:00 +30°C° 0 mm 2 m/S 748 mmHg 53%
    11:00 +30°C° 0 mm 2 m/S 748 mmHg 50%
    12:00 +31°C° 0 mm 2 m/S 748 mmHg 47%
    13:00 +32°C° 0 mm 2 m/S 748 mmHg 44%
    14:00 +32°C° 0 mm 2 m/S 748 mmHg 47%
    15:00 +31°C° 0 mm 2 m/S 748 mmHg 50%
    16:00 +31°C° 0 mm 1 m/S 748 mmHg 53%
    17:00 +29°C° 0.5 mm 1 m/S 748 mmHg 61%
    18:00 +27°C° 0.5 mm 1 m/S 748 mmHg 69%
    19:00 +26°C° 0.5 mm 1 m/S 748 mmHg 77%
    20:00 +24°C° 1.5 mm 2 m/S 748 mmHg 82%
    21:00 +23°C° 1.5 mm 2 m/S 749 mmHg 87%
    22:00 +21°C° 1.5 mm 3 m/S 749 mmHg 92%
    23:00 +20°C° 0.3 mm 2 m/S 749 mmHg 92%
    Mehr zeigen